owner,sensor,date,latitude,longitude,vertical_datum,wind_speed,wind_to_direction,wind_speed_of_gust,qcFlag 
DISL,ioos:station:DISL:CATA:1,2017-11-01T00:00:00Z,30.3085,-88.1395,0.0,1.3,81.0,99.0,'11111222,11111222,11144222' 
DISL,ioos:station:DISL:CATA:1,2017-11-01T00:30:00Z,30.3085,-88.1395,0.0,1.39,70.3,-9999.0,'1111122,1111122,1111122' 
DISL,ioos:station:DISL:CATA:1,2017-11-01T01:00:00Z,30.3085,-88.1395,0.0,1.4,68.0,99.0,'11111222,11111222,11144222' 
DISL,ioos:station:DISL:CATA:1,2017-11-01T01:30:00Z,30.3085,-88.1395,0.0,1.64,73.57,-9999.0,'1111122,1111122,1111122' 
DISL,ioos:station:DISL:CATA:1,2017-11-01T02:00:00Z,30.3085,-88.1395,0.0,1.7,73.0,99.0,'11111222,11111222,11144222' 
DISL,ioos:station:DISL:CATA:1,2017-11-01T02:30:00Z,30.3085,-88.1395,0.0,2.07,87.7,-9999.0,'1111122,1111122,1111122' 
DISL,ioos:station:DISL:CATA:1,2017-11-01T03:00:00Z,30.3085,-88.1395,0.0,2.4,106.0,99.0,'11111222,11111222,11144222' 
DISL,ioos:station:DISL:CATA:1,2017-11-01T03:30:00Z,30.3085,-88.1395,0.0,2.48,108.7,-9999.0,'1111122,1111122,1111122' 
DISL,ioos:station:DISL:CATA:1,2017-11-01T04:00:00Z,30.3085,-88.1395,0.0,2.4,105.0,99.0,'11111222,11111222,11144222' 
DISL,ioos:station:DISL:CATA:1,2017-11-01T04:30:00Z,30.3085,-88.1395,0.0,1.91,123.6,-9999.0,'1111122,1111122,1111122' 
DISL,ioos:station:DISL:CATA:1,2017-11-01T05:00:00Z,30.3085,-88.1395,0.0,2.3,147.0,99.0,'11111222,11111222,11144222' 
DISL,ioos:station:DISL:CATA:1,2017-11-01T05:30:00Z,30.3085,-88.1395,0.0,3.75,152.6,-9999.0,'1111122,1111122,1111122' 
DISL,ioos:station:DISL:CATA:1,2017-11-01T06:30:00Z,30.3085,-88.1395,0.0,3.02,132.2,-9999.0,'1111122,1111122,1111122' 
DISL,ioos:station:DISL:CATA:1,2017-11-01T07:00:00Z,30.3085,-88.1395,0.0,2.8,145.0,99.0,'11111222,11111222,11144222' 
DISL,ioos:station:DISL:CATA:1,2017-11-01T07:30:00Z,30.3085,-88.1395,0.0,3.17,144.0,-9999.0,'1111122,1111122,1111122' 
DISL,ioos:station:DISL:CATA:1,2017-11-01T08:00:00Z,30.3085,-88.1395,0.0,2.9,138.0,99.0,'11111222,11111222,11144222' 
DISL,ioos:station:DISL:CATA:1,2017-11-01T08:30:00Z,30.3085,-88.1395,0.0,3.93,143.5,-9999.0,'1111122,1111122,1111122' 
DISL,ioos:station:DISL:CATA:1,2017-11-01T09:00:00Z,30.3085,-88.1395,0.0,3.9,140.0,99.0,'11111222,11111222,11144222' 
DISL,ioos:station:DISL:CATA:1,2017-11-01T09:30:00Z,30.3085,-88.1395,0.0,3.88,140.1,-9999.0,'1111122,1111122,1111122' 
DISL,ioos:station:DISL:CATA:1,2017-11-01T10:00:00Z,30.3085,-88.1395,0.0,3.6,143.0,99.0,'11111222,11111222,11144222' 
DISL,ioos:station:DISL:CATA:1,2017-11-01T10:30:00Z,30.3085,-88.1395,0.0,4.01,140.6,-9999.0,'1111122,1111122,1111122' 
DISL,ioos:station:DISL:CATA:1,2017-11-01T11:00:00Z,30.3085,-88.1395,0.0,4.0,144.0,99.0,'11111222,11111222,11144222' 
DISL,ioos:station:DISL:CATA:1,2017-11-01T11:30:00Z,30.3085,-88.1395,0.0,4.42,140.4,-9999.0,'1111122,1111122,1111122' 
DISL,ioos:station:DISL:CATA:1,2017-11-01T12:00:00Z,30.3085,-88.1395,0.0,3.9,146.0,99.0,'11111222,11111222,11144222' 
DISL,ioos:station:DISL:CATA:1,2017-11-01T12:30:00Z,30.3085,-88.1395,0.0,4.16,148.0,-9999.0,'1111122,1111122,1111122' 
DISL,ioos:station:DISL:CATA:1,2017-11-01T13:00:00Z,30.3085,-88.1395,0.0,4.0,147.0,99.0,'11111222,11111222,11144222' 
DISL,ioos:station:DISL:CATA:1,2017-11-01T13:30:00Z,30.3085,-88.1395,0.0,4.71,151.1,-9999.0,'1111122,1111122,1111122' 
DISL,ioos:station:DISL:CATA:1,2017-11-01T14:00:00Z,30.3085,-88.1395,0.0,5.3,150.0,99.0,'11111222,11111222,11144222' 
DISL,ioos:station:DISL:CATA:1,2017-11-01T14:30:00Z,30.3085,-88.1395,0.0,5.51,146.6,-9999.0,'1111122,1111122,1111122' 
DISL,ioos:station:DISL:CATA:1,2017-11-01T15:00:00Z,30.3085,-88.1395,0.0,5.9,145.0,99.0,'11111222,11111222,11144222' 
DISL,ioos:station:DISL:CATA:1,2017-11-01T15:30:00Z,30.3085,-88.1395,0.0,5.8,142.9,-9999.0,'1111122,1111122,1111122' 
DISL,ioos:station:DISL:CATA:1,2017-11-01T16:00:00Z,30.3085,-88.1395,0.0,5.6,142.0,99.0,'11111222,11111222,11144222' 
DISL,ioos:station:DISL:CATA:1,2017-11-01T16:30:00Z,30.3085,-88.1395,0.0,4.89,138.1,-9999.0,'1111122,1111122,1111122' 
DISL,ioos:station:DISL:CATA:1,2017-11-01T17:00:00Z,30.3085,-88.1395,0.0,5.3,144.0,99.0,'11111222,11111222,11144222' 
DISL,ioos:station:DISL:CATA:1,2017-11-01T17:30:00Z,30.3085,-88.1395,0.0,4.94,145.4,-9999.0,'1111122,1111122,1111122' 
DISL,ioos:station:DISL:CATA:1,2017-11-01T18:00:00Z,30.3085,-88.1395,0.0,5.0,142.0,99.0,'11111222,11111222,11144222' 
DISL,ioos:station:DISL:CATA:1,2017-11-01T18:30:00Z,30.3085,-88.1395,0.0,5.13,148.8,-9999.0,'1111122,1111122,1111122' 
DISL,ioos:station:DISL:CATA:1,2017-11-01T19:00:00Z,30.3085,-88.1395,0.0,5.1,149.0,99.0,'11111222,11111222,11144222' 
DISL,ioos:station:DISL:CATA:1,2017-11-01T19:30:00Z,30.3085,-88.1395,0.0,4.99,138.6,-9999.0,'1111122,1111122,1111122' 
DISL,ioos:station:DISL:CATA:1,2017-11-01T20:00:00Z,30.3085,-88.1395,0.0,5.4,138.0,99.0,'11111222,11111222,11144222' 
DISL,ioos:station:DISL:CATA:1,2017-11-01T20:30:00Z,30.3085,-88.1395,0.0,5.27,139.3,-9999.0,'1111122,1111122,1111122' 
DISL,ioos:station:DISL:CATA:1,2017-11-01T21:00:00Z,30.3085,-88.1395,0.0,5.2,143.0,99.0,'11111222,11111222,11144222' 
DISL,ioos:station:DISL:CATA:1,2017-11-01T21:30:00Z,30.3085,-88.1395,0.0,5.2,141.1,-9999.0,'1111122,1111122,1111122' 
DISL,ioos:station:DISL:CATA:1,2017-11-01T22:00:00Z,30.3085,-88.1395,0.0,4.9,141.0,99.0,'11111222,11111222,11144222' 
DISL,ioos:station:DISL:CATA:1,2017-11-01T22:30:00Z,30.3085,-88.1395,0.0,5.46,144.7,-9999.0,'1111122,1111122,1111122' 
DISL,ioos:station:DISL:CATA:1,2017-11-01T23:00:00Z,30.3085,-88.1395,0.0,5.5,147.0,99.0,'11111222,11111222,11144222' 
DISL,ioos:station:DISL:CATA:1,2017-11-01T23:30:00Z,30.3085,-88.1395,0.0,4.64,139.9,-9999.0,'1111122,1111122,1111122' 
DISL,ioos:station:DISL:CATA:1,2017-11-02T00:00:00Z,30.3085,-88.1395,0.0,4.6,147.0,99.0,'11111222,11111222,11144222' 
DISL,ioos:station:DISL:CATA:1,2017-11-02T00:30:00Z,30.3085,-88.1395,0.0,5.11,145.0,-9999.0,'1111122,1111122,1111122' 
DISL,ioos:station:DISL:CATA:1,2017-11-02T01:00:00Z,30.3085,-88.1395,0.0,6.3,153.0,99.0,'11111222,11111222,11144222' 
DISL,ioos:station:DISL:CATA:1,2017-11-02T01:30:00Z,30.3085,-88.1395,0.0,6.2,154.7,-9999.0,'1111122,1111122,1111122' 
DISL,ioos:station:DISL:CATA:1,2017-11-02T02:00:00Z,30.3085,-88.1395,0.0,7.3,156.0,99.0,'11111222,11111222,11144222' 
DISL,ioos:station:DISL:CATA:1,2017-11-02T02:30:00Z,30.3085,-88.1395,0.0,6.65,158.9,-9999.0,'1111122,1111122,1111122' 
DISL,ioos:station:DISL:CATA:1,2017-11-02T03:00:00Z,30.3085,-88.1395,0.0,7.8,158.0,99.0,'11111222,11111222,11144222' 
DISL,ioos:station:DISL:CATA:1,2017-11-02T03:30:00Z,30.3085,-88.1395,0.0,7.72,164.4,-9999.0,'1111122,1111122,1111122' 
DISL,ioos:station:DISL:CATA:1,2017-11-02T04:00:00Z,30.3085,-88.1395,0.0,7.2,170.0,99.0,'11111222,11111222,11144222' 
DISL,ioos:station:DISL:CATA:1,2017-11-02T04:30:00Z,30.3085,-88.1395,0.0,6.55,168.1,-9999.0,'1111122,1111122,1111122' 
DISL,ioos:station:DISL:CATA:1,2017-11-02T05:00:00Z,30.3085,-88.1395,0.0,6.2,164.0,99.0,'11111222,11111222,11144222' 
DISL,ioos:station:DISL:CATA:1,2017-11-02T05:30:00Z,30.3085,-88.1395,0.0,6.3,170.9,-9999.0,'1111122,1111122,1111122' 
DISL,ioos:station:DISL:CATA:1,2017-11-02T06:30:00Z,30.3085,-88.1395,0.0,5.15,183.9,-9999.0,'1111122,1111122,1111122' 
DISL,ioos:station:DISL:CATA:1,2017-11-02T07:00:00Z,30.3085,-88.1395,0.0,6.0,191.0,99.0,'11111222,11111222,11144222' 
DISL,ioos:station:DISL:CATA:1,2017-11-02T07:30:00Z,30.3085,-88.1395,0.0,3.76,208.4,-9999.0,'1111122,1111122,1111122' 
DISL,ioos:station:DISL:CATA:1,2017-11-02T08:00:00Z,30.3085,-88.1395,0.0,3.7,210.0,99.0,'11111222,11111222,11144222' 
DISL,ioos:station:DISL:CATA:1,2017-11-02T08:30:00Z,30.3085,-88.1395,0.0,4.33,211.1,-9999.0,'1111122,1111122,1111122' 
DISL,ioos:station:DISL:CATA:1,2017-11-02T09:00:00Z,30.3085,-88.1395,0.0,3.0,216.0,99.0,'11111222,11111222,11144222' 
DISL,ioos:station:DISL:CATA:1,2017-11-02T09:30:00Z,30.3085,-88.1395,0.0,2.04,210.3,-9999.0,'1111122,1111122,1111122' 
DISL,ioos:station:DISL:CATA:1,2017-11-02T10:00:00Z,30.3085,-88.1395,0.0,1.7,181.0,99.0,'11111222,11111222,11144222' 
DISL,ioos:station:DISL:CATA:1,2017-11-02T10:30:00Z,30.3085,-88.1395,0.0,0.37,124.7,-9999.0,'1111122,1111122,1111122' 
DISL,ioos:station:DISL:CATA:1,2017-11-02T11:00:00Z,30.3085,-88.1395,0.0,1.7,62.0,99.0,'11111222,11111222,11144222' 
DISL,ioos:station:DISL:CATA:1,2017-11-02T11:30:00Z,30.3085,-88.1395,0.0,2.46,52.95,-9999.0,'1111122,1111122,1111122' 
DISL,ioos:station:DISL:CATA:1,2017-11-02T12:00:00Z,30.3085,-88.1395,0.0,2.0,83.0,99.0,'11111222,11111222,11144222' 
DISL,ioos:station:DISL:CATA:1,2017-11-02T12:30:00Z,30.3085,-88.1395,0.0,2.06,102.8,-9999.0,'1111122,1111122,1111122' 
DISL,ioos:station:DISL:CATA:1,2017-11-02T13:00:00Z,30.3085,-88.1395,0.0,2.5,111.0,99.0,'11111222,11111222,11144222' 
DISL,ioos:station:DISL:CATA:1,2017-11-02T13:30:00Z,30.3085,-88.1395,0.0,2.41,116.9,-9999.0,'1111122,1111122,1111122' 
DISL,ioos:station:DISL:CATA:1,2017-11-02T14:00:00Z,30.3085,-88.1395,0.0,1.6,86.0,99.0,'11111222,11111222,11144222' 
DISL,ioos:station:DISL:CATA:1,2017-11-02T14:30:00Z,30.3085,-88.1395,0.0,1.92,100.4,-9999.0,'1111122,1111122,1111122' 
DISL,ioos:station:DISL:CATA:1,2017-11-02T15:00:00Z,30.3085,-88.1395,0.0,2.2,113.0,99.0,'11111222,11111222,11144222' 
DISL,ioos:station:DISL:CATA:1,2017-11-02T15:30:00Z,30.3085,-88.1395,0.0,2.79,115.8,-9999.0,'1111122,1111122,1111122' 
DISL,ioos:station:DISL:CATA:1,2017-11-02T16:00:00Z,30.3085,-88.1395,0.0,2.4,106.0,99.0,'11111222,11111222,11144222' 
DISL,ioos:station:DISL:CATA:1,2017-11-02T16:30:00Z,30.3085,-88.1395,0.0,2.15,111.0,-9999.0,'1111122,1111122,1111122' 
DISL,ioos:station:DISL:CATA:1,2017-11-02T17:00:00Z,30.3085,-88.1395,0.0,1.6,101.0,99.0,'11111222,11111222,11144222' 
DISL,ioos:station:DISL:CATA:1,2017-11-02T17:30:00Z,30.3085,-88.1395,0.0,1.54,122.1,-9999.0,'1111122,1111122,1111122' 
DISL,ioos:station:DISL:CATA:1,2017-11-02T18:00:00Z,30.3085,-88.1395,0.0,1.7,144.0,99.0,'11111222,11111222,11144222' 
DISL,ioos:station:DISL:CATA:1,2017-11-02T18:30:00Z,30.3085,-88.1395,0.0,2.26,143.5,-9999.0,'1111122,1111122,1111122' 
DISL,ioos:station:DISL:CATA:1,2017-11-02T19:00:00Z,30.3085,-88.1395,0.0,3.3,131.0,99.0,'11111222,11111222,11144222' 
DISL,ioos:station:DISL:CATA:1,2017-11-02T19:30:00Z,30.3085,-88.1395,0.0,3.22,134.2,-9999.0,'1111122,1111122,1111122' 
DISL,ioos:station:DISL:CATA:1,2017-11-02T20:00:00Z,30.3085,-88.1395,0.0,3.0,134.0,99.0,'11111222,11111222,11144222' 
DISL,ioos:station:DISL:CATA:1,2017-11-02T20:30:00Z,30.3085,-88.1395,0.0,3.28,138.1,-9999.0,'1111122,1111122,1111122' 
DISL,ioos:station:DISL:CATA:1,2017-11-02T21:00:00Z,30.3085,-88.1395,0.0,3.3,143.0,99.0,'11111222,11111222,11144222' 
DISL,ioos:station:DISL:CATA:1,2017-11-02T21:30:00Z,30.3085,-88.1395,0.0,3.13,140.3,-9999.0,'1111122,1111122,1111122' 
DISL,ioos:station:DISL:CATA:1,2017-11-02T22:00:00Z,30.3085,-88.1395,0.0,3.1,146.0,99.0,'11111222,11111222,11144222' 
DISL,ioos:station:DISL:CATA:1,2017-11-02T22:30:00Z,30.3085,-88.1395,0.0,2.85,138.7,-9999.0,'1111122,1111122,1111122' 
DISL,ioos:station:DISL:CATA:1,2017-11-02T23:00:00Z,30.3085,-88.1395,0.0,2.7,134.0,99.0,'11111222,11111222,11144222' 
DISL,ioos:station:DISL:CATA:1,2017-11-02T23:30:00Z,30.3085,-88.1395,0.0,3.08,135.9,-9999.0,'1111122,1111122,1111122' 
DISL,ioos:station:DISL:CATA:1,2017-11-03T00:00:00Z,30.3085,-88.1395,0.0,3.4,137.0,99.0,'11111222,11111222,11144222' 
DISL,ioos:station:DISL:CATA:1,2017-11-03T00:30:00Z,30.3085,-88.1395,0.0,3.21,144.8,-9999.0,'1111122,1111122,1111122' 
DISL,ioos:station:DISL:CATA:1,2017-11-03T01:00:00Z,30.3085,-88.1395,0.0,3.7,144.0,99.0,'11111222,11111222,11144222' 
DISL,ioos:station:DISL:CATA:1,2017-11-03T01:30:00Z,30.3085,-88.1395,0.0,2.98,139.3,-9999.0,'1111122,1111122,1111122' 
DISL,ioos:station:DISL:CATA:1,2017-11-03T02:00:00Z,30.3085,-88.1395,0.0,3.1,144.0,99.0,'11111222,11111222,11144222' 
DISL,ioos:station:DISL:CATA:1,2017-11-03T02:30:00Z,30.3085,-88.1395,0.0,3.08,144.8,-9999.0,'1111122,1111122,1111122' 
DISL,ioos:station:DISL:CATA:1,2017-11-03T03:00:00Z,30.3085,-88.1395,0.0,2.7,141.0,99.0,'11111222,11111222,11144222' 
DISL,ioos:station:DISL:CATA:1,2017-11-03T03:30:00Z,30.3085,-88.1395,0.0,2.91,133.2,-9999.0,'1111122,1111122,1111122' 
DISL,ioos:station:DISL:CATA:1,2017-11-03T04:00:00Z,30.3085,-88.1395,0.0,1.6,125.0,99.0,'11111222,11111222,11144222' 
DISL,ioos:station:DISL:CATA:1,2017-11-03T04:30:00Z,30.3085,-88.1395,0.0,2.8,145.8,-9999.0,'1111122,1111122,1111122' 
DISL,ioos:station:DISL:CATA:1,2017-11-03T05:00:00Z,30.3085,-88.1395,0.0,2.7,143.0,99.0,'11111222,11111222,11144222' 
DISL,ioos:station:DISL:CATA:1,2017-11-03T05:30:00Z,30.3085,-88.1395,0.0,2.58,147.0,-9999.0,'1111122,1111122,1111122' 
DISL,ioos:station:DISL:CATA:1,2017-11-03T06:30:00Z,30.3085,-88.1395,0.0,3.28,150.9,-9999.0,'1111122,1111122,1111122' 
DISL,ioos:station:DISL:CATA:1,2017-11-03T07:00:00Z,30.3085,-88.1395,0.0,2.8,144.0,99.0,'11111222,11111222,11144222' 
DISL,ioos:station:DISL:CATA:1,2017-11-03T07:30:00Z,30.3085,-88.1395,0.0,2.97,143.0,-9999.0,'1111122,1111122,1111122' 
DISL,ioos:station:DISL:CATA:1,2017-11-03T08:00:00Z,30.3085,-88.1395,0.0,2.9,146.0,99.0,'11111222,11111222,11144222' 
DISL,ioos:station:DISL:CATA:1,2017-11-03T08:30:00Z,30.3085,-88.1395,0.0,2.02,158.7,-9999.0,'1111122,1111122,1111122' 
DISL,ioos:station:DISL:CATA:1,2017-11-03T09:00:00Z,30.3085,-88.1395,0.0,1.2,135.0,99.0,'11111222,11111222,11144222' 
DISL,ioos:station:DISL:CATA:1,2017-11-03T09:30:00Z,30.3085,-88.1395,0.0,1.44,60.46,-9999.0,'1111122,1111122,1111122' 
DISL,ioos:station:DISL:CATA:1,2017-11-03T10:00:00Z,30.3085,-88.1395,0.0,2.0,56.0,99.0,'11111222,11111222,11144222' 
DISL,ioos:station:DISL:CATA:1,2017-11-03T10:30:00Z,30.3085,-88.1395,0.0,2.06,64.28,-9999.0,'1111122,1111122,1111122' 
DISL,ioos:station:DISL:CATA:1,2017-11-03T11:00:00Z,30.3085,-88.1395,0.0,1.7,58.0,99.0,'11111222,11111222,11144222' 
DISL,ioos:station:DISL:CATA:1,2017-11-03T11:30:00Z,30.3085,-88.1395,0.0,1.73,76.79,-9999.0,'1111122,1111122,1111122' 
DISL,ioos:station:DISL:CATA:1,2017-11-03T12:00:00Z,30.3085,-88.1395,0.0,2.2,85.0,99.0,'11111222,11111222,11144222' 
DISL,ioos:station:DISL:CATA:1,2017-11-03T12:30:00Z,30.3085,-88.1395,0.0,2.1,100.4,-9999.0,'1111122,1111122,1111122' 
DISL,ioos:station:DISL:CATA:1,2017-11-03T13:00:00Z,30.3085,-88.1395,0.0,1.7,107.0,99.0,'11111222,11111222,11144222' 
DISL,ioos:station:DISL:CATA:1,2017-11-03T13:30:00Z,30.3085,-88.1395,0.0,1.66,85.2,-9999.0,'1111122,1111122,1111122' 
DISL,ioos:station:DISL:CATA:1,2017-11-03T14:00:00Z,30.3085,-88.1395,0.0,1.7,87.0,99.0,'11111222,11111222,11144222' 
DISL,ioos:station:DISL:CATA:1,2017-11-03T14:30:00Z,30.3085,-88.1395,0.0,1.77,95.0,-9999.0,'1111122,1111122,1111122' 
DISL,ioos:station:DISL:CATA:1,2017-11-03T15:00:00Z,30.3085,-88.1395,0.0,2.0,95.0,99.0,'11111222,11111222,11144222' 
DISL,ioos:station:DISL:CATA:1,2017-11-03T15:30:00Z,30.3085,-88.1395,0.0,1.71,96.2,-9999.0,'1111122,1111122,1111122' 
DISL,ioos:station:DISL:CATA:1,2017-11-03T16:00:00Z,30.3085,-88.1395,0.0,1.6,103.0,99.0,'11111222,11111222,11144222' 
DISL,ioos:station:DISL:CATA:1,2017-11-03T16:30:00Z,30.3085,-88.1395,0.0,1.54,100.8,-9999.0,'1111122,1111122,1111122' 
DISL,ioos:station:DISL:CATA:1,2017-11-03T17:00:00Z,30.3085,-88.1395,0.0,2.3,121.0,99.0,'11111222,11111222,11144222' 
DISL,ioos:station:DISL:CATA:1,2017-11-03T17:30:00Z,30.3085,-88.1395,0.0,2.67,118.9,-9999.0,'1111122,1111122,1111122' 
DISL,ioos:station:DISL:CATA:1,2017-11-03T18:00:00Z,30.3085,-88.1395,0.0,3.2,128.0,99.0,'11111222,11111222,11144222' 
DISL,ioos:station:DISL:CATA:1,2017-11-03T18:30:00Z,30.3085,-88.1395,0.0,3.29,134.0,-9999.0,'1111122,1111122,1111122' 
DISL,ioos:station:DISL:CATA:1,2017-11-03T19:00:00Z,30.3085,-88.1395,0.0,3.3,144.0,99.0,'11111222,11111222,11144222' 
DISL,ioos:station:DISL:CATA:1,2017-11-03T19:30:00Z,30.3085,-88.1395,0.0,2.78,144.8,-9999.0,'1111122,1111122,1111122' 
DISL,ioos:station:DISL:CATA:1,2017-11-03T20:00:00Z,30.3085,-88.1395,0.0,2.2,144.0,99.0,'11111222,11111222,11144222' 
DISL,ioos:station:DISL:CATA:1,2017-11-03T20:30:00Z,30.3085,-88.1395,0.0,2.01,153.8,-9999.0,'1111122,1111122,1111122' 
DISL,ioos:station:DISL:CATA:1,2017-11-03T21:00:00Z,30.3085,-88.1395,0.0,2.2,156.0,99.0,'11111222,11111222,11144222' 
DISL,ioos:station:DISL:CATA:1,2017-11-03T21:30:00Z,30.3085,-88.1395,0.0,3.19,189.5,-9999.0,'1111122,1111122,1111122' 
DISL,ioos:station:DISL:CATA:1,2017-11-03T22:00:00Z,30.3085,-88.1395,0.0,2.8,192.0,99.0,'11111222,11111222,11144222' 
DISL,ioos:station:DISL:CATA:1,2017-11-03T22:30:00Z,30.3085,-88.1395,0.0,2.64,185.6,-9999.0,'1111122,1111122,1111122' 
DISL,ioos:station:DISL:CATA:1,2017-11-03T23:00:00Z,30.3085,-88.1395,0.0,2.9,184.0,99.0,'11111222,11111222,11144222' 
DISL,ioos:station:DISL:CATA:1,2017-11-03T23:30:00Z,30.3085,-88.1395,0.0,3.2,182.0,99.0,'11111222,11111222,11144222' 
DISL,ioos:station:DISL:CATA:1,2017-11-04T00:00:00Z,30.3085,-88.1395,0.0,3.1,183.0,99.0,'11111222,11111222,11144222' 
DISL,ioos:station:DISL:CATA:1,2017-11-04T00:30:00Z,30.3085,-88.1395,0.0,3.42,181.2,-9999.0,'1111122,1111122,1111122' 
DISL,ioos:station:DISL:CATA:1,2017-11-04T01:00:00Z,30.3085,-88.1395,0.0,3.4,174.0,99.0,'11111222,11111222,11144222' 
DISL,ioos:station:DISL:CATA:1,2017-11-04T01:30:00Z,30.3085,-88.1395,0.0,2.42,168.0,-9999.0,'1111122,1111122,1111122' 
DISL,ioos:station:DISL:CATA:1,2017-11-04T02:00:00Z,30.3085,-88.1395,0.0,2.5,177.0,99.0,'11111222,11111222,11144222' 
DISL,ioos:station:DISL:CATA:1,2017-11-04T02:30:00Z,30.3085,-88.1395,0.0,2.28,177.6,-9999.0,'1111122,1111122,1111122' 
DISL,ioos:station:DISL:CATA:1,2017-11-04T03:00:00Z,30.3085,-88.1395,0.0,1.0,187.0,99.0,'11111222,11111222,11144222' 
DISL,ioos:station:DISL:CATA:1,2017-11-04T03:30:00Z,30.3085,-88.1395,0.0,1.04,177.4,-9999.0,'1111122,1111122,1111122' 
DISL,ioos:station:DISL:CATA:1,2017-11-04T04:00:00Z,30.3085,-88.1395,0.0,0.9,166.0,99.0,'11111222,11111222,11144222' 
DISL,ioos:station:DISL:CATA:1,2017-11-04T04:30:00Z,30.3085,-88.1395,0.0,0.0,0.0,-9999.0,'1114422,1114422,1111122' 
DISL,ioos:station:DISL:CATA:1,2017-11-04T05:00:00Z,30.3085,-88.1395,0.0,0.0,0.0,99.0,'11111222,11111222,11144222' 
DISL,ioos:station:DISL:CATA:1,2017-11-04T05:30:00Z,30.3085,-88.1395,0.0,0.18,335.2,-9999.0,'1111122,1111122,1111122' 
DISL,ioos:station:DISL:CATA:1,2017-11-04T06:30:00Z,30.3085,-88.1395,0.0,0.76,348.6,-9999.0,'1111122,1111122,1111122' 
DISL,ioos:station:DISL:CATA:1,2017-11-04T07:00:00Z,30.3085,-88.1395,0.0,0.2,322.0,99.0,'11111222,11111222,11144222' 
DISL,ioos:station:DISL:CATA:1,2017-11-04T07:30:00Z,30.3085,-88.1395,0.0,0.75,334.0,-9999.0,'1111122,1111122,1111122' 
DISL,ioos:station:DISL:CATA:1,2017-11-04T08:00:00Z,30.3085,-88.1395,0.0,2.0,360.0,99.0,'11111222,11144222,11144222' 
DISL,ioos:station:DISL:CATA:1,2017-11-04T08:30:00Z,30.3085,-88.1395,0.0,0.94,303.2,-9999.0,'1111122,1111122,1111122' 
DISL,ioos:station:DISL:CATA:1,2017-11-04T09:00:00Z,30.3085,-88.1395,0.0,1.9,359.0,99.0,'11111222,11111222,11144222' 
DISL,ioos:station:DISL:CATA:1,2017-11-04T09:30:00Z,30.3085,-88.1395,0.0,2.33,354.4,-9999.0,'1111122,1111122,1111122' 
DISL,ioos:station:DISL:CATA:1,2017-11-04T10:00:00Z,30.3085,-88.1395,0.0,2.4,357.0,99.0,'11111222,11111222,11144222' 
DISL,ioos:station:DISL:CATA:1,2017-11-04T10:30:00Z,30.3085,-88.1395,0.0,2.19,23.89,-9999.0,'1111122,1111122,1111122' 
DISL,ioos:station:DISL:CATA:1,2017-11-04T11:00:00Z,30.3085,-88.1395,0.0,2.9,30.0,99.0,'11111222,11111222,11144222' 
DISL,ioos:station:DISL:CATA:1,2017-11-04T11:30:00Z,30.3085,-88.1395,0.0,1.66,64.83,-9999.0,'1111122,1111122,1111122' 
DISL,ioos:station:DISL:CATA:1,2017-11-04T12:00:00Z,30.3085,-88.1395,0.0,2.2,66.0,99.0,'11111222,11111222,11144222' 
DISL,ioos:station:DISL:CATA:1,2017-11-04T12:30:00Z,30.3085,-88.1395,0.0,2.47,59.71,-9999.0,'1111122,1111122,1111122' 
DISL,ioos:station:DISL:CATA:1,2017-11-04T13:00:00Z,30.3085,-88.1395,0.0,2.6,55.0,99.0,'11111222,11111222,11144222' 
DISL,ioos:station:DISL:CATA:1,2017-11-04T13:30:00Z,30.3085,-88.1395,0.0,0.4,61.75,-9999.0,'1111122,1111122,1111122' 
DISL,ioos:station:DISL:CATA:1,2017-11-04T14:00:00Z,30.3085,-88.1395,0.0,0.3,170.0,99.0,'11111222,11111222,11144222' 
DISL,ioos:station:DISL:CATA:1,2017-11-04T14:30:00Z,30.3085,-88.1395,0.0,0.02,190.6,-9999.0,'1111122,1111122,1111122' 
DISL,ioos:station:DISL:CATA:1,2017-11-04T15:00:00Z,30.3085,-88.1395,0.0,0.7,219.0,99.0,'11111222,11111222,11144222' 
DISL,ioos:station:DISL:CATA:1,2017-11-04T15:30:00Z,30.3085,-88.1395,0.0,0.0,0.0,-9999.0,'1114422,1114422,1111122' 
DISL,ioos:station:DISL:CATA:1,2017-11-04T16:00:00Z,30.3085,-88.1395,0.0,0.5,236.0,99.0,'11111222,11111222,11144222' 
DISL,ioos:station:DISL:CATA:1,2017-11-04T16:30:00Z,30.3085,-88.1395,0.0,0.93,208.4,-9999.0,'1111122,1111122,1111122' 
DISL,ioos:station:DISL:CATA:1,2017-11-04T17:00:00Z,30.3085,-88.1395,0.0,1.8,237.0,99.0,'11111222,11111222,11144222' 
DISL,ioos:station:DISL:CATA:1,2017-11-04T17:30:00Z,30.3085,-88.1395,0.0,2.06,220.6,-9999.0,'1111122,1111122,1111122' 
DISL,ioos:station:DISL:CATA:1,2017-11-04T18:00:00Z,30.3085,-88.1395,0.0,3.0,221.0,99.0,'11111222,11111222,11144222' 
DISL,ioos:station:DISL:CATA:1,2017-11-04T18:30:00Z,30.3085,-88.1395,0.0,2.79,220.4,-9999.0,'1111122,1111122,1111122' 
DISL,ioos:station:DISL:CATA:1,2017-11-04T19:00:00Z,30.3085,-88.1395,0.0,2.3,210.0,99.0,'11111222,11111222,11144222' 
DISL,ioos:station:DISL:CATA:1,2017-11-04T19:30:00Z,30.3085,-88.1395,0.0,2.36,198.0,-9999.0,'1111122,1111122,1111122' 
DISL,ioos:station:DISL:CATA:1,2017-11-04T20:00:00Z,30.3085,-88.1395,0.0,2.7,192.0,99.0,'11111222,11111222,11144222' 
DISL,ioos:station:DISL:CATA:1,2017-11-04T20:30:00Z,30.3085,-88.1395,0.0,2.75,180.4,-9999.0,'1111122,1111122,1111122' 
DISL,ioos:station:DISL:CATA:1,2017-11-04T21:00:00Z,30.3085,-88.1395,0.0,3.0,197.0,99.0,'11111222,11111222,11144222' 
DISL,ioos:station:DISL:CATA:1,2017-11-04T21:30:00Z,30.3085,-88.1395,0.0,3.09,185.7,-9999.0,'1111122,1111122,1111122' 
DISL,ioos:station:DISL:CATA:1,2017-11-04T22:00:00Z,30.3085,-88.1395,0.0,3.6,192.0,99.0,'11111222,11111222,11144222' 
DISL,ioos:station:DISL:CATA:1,2017-11-04T22:30:00Z,30.3085,-88.1395,0.0,3.07,199.4,-9999.0,'1111122,1111122,1111122' 
DISL,ioos:station:DISL:CATA:1,2017-11-04T23:00:00Z,30.3085,-88.1395,0.0,2.6,194.0,99.0,'11111222,11111222,11144222' 
DISL,ioos:station:DISL:CATA:1,2017-11-04T23:30:00Z,30.3085,-88.1395,0.0,2.36,177.1,-9999.0,'1111122,1111122,1111122' 
DISL,ioos:station:DISL:CATA:1,2017-11-05T00:00:00Z,30.3085,-88.1395,0.0,2.6,163.0,99.0,'11111222,11111222,11144222' 
DISL,ioos:station:DISL:CATA:1,2017-11-05T00:30:00Z,30.3085,-88.1395,0.0,2.24,159.7,-9999.0,'1111122,1111122,1111122' 
DISL,ioos:station:DISL:CATA:1,2017-11-05T01:00:00Z,30.3085,-88.1395,0.0,2.0,183.0,99.0,'11111222,11111222,11144222' 
DISL,ioos:station:DISL:CATA:1,2017-11-05T01:30:00Z,30.3085,-88.1395,0.0,2.06,172.7,-9999.0,'1111122,1111122,1111122' 
DISL,ioos:station:DISL:CATA:1,2017-11-05T02:00:00Z,30.3085,-88.1395,0.0,2.1,188.0,99.0,'11111222,11111222,11144222' 
DISL,ioos:station:DISL:CATA:1,2017-11-05T02:30:00Z,30.3085,-88.1395,0.0,2.58,192.9,-9999.0,'1111122,1111122,1111122' 
DISL,ioos:station:DISL:CATA:1,2017-11-05T03:00:00Z,30.3085,-88.1395,0.0,2.8,191.0,99.0,'11111222,11111222,11144222' 
DISL,ioos:station:DISL:CATA:1,2017-11-05T03:30:00Z,30.3085,-88.1395,0.0,2.4,194.2,-9999.0,'1111122,1111122,1111122' 
DISL,ioos:station:DISL:CATA:1,2017-11-05T04:00:00Z,30.3085,-88.1395,0.0,2.3,195.0,99.0,'11111222,11111222,11144222' 
DISL,ioos:station:DISL:CATA:1,2017-11-05T04:30:00Z,30.3085,-88.1395,0.0,1.74,189.9,-9999.0,'1111122,1111122,1111122' 
DISL,ioos:station:DISL:CATA:1,2017-11-05T05:00:00Z,30.3085,-88.1395,0.0,1.0,161.0,99.0,'11111222,11111222,11144222' 
DISL,ioos:station:DISL:CATA:1,2017-11-05T05:30:00Z,30.3085,-88.1395,0.0,1.4,163.4,-9999.0,'1111122,1111122,1111122' 
DISL,ioos:station:DISL:CATA:1,2017-11-05T06:30:00Z,30.3085,-88.1395,0.0,1.64,154.8,-9999.0,'1111122,1111122,1111122' 
DISL,ioos:station:DISL:CATA:1,2017-11-05T07:00:00Z,30.3085,-88.1395,0.0,1.2,171.0,99.0,'11111222,11111222,11144222' 
DISL,ioos:station:DISL:CATA:1,2017-11-05T07:30:00Z,30.3085,-88.1395,0.0,0.7,208.0,99.0,'11111222,11111222,11144222' 